Perry, FL

3:39 PM EST on December 07, 2016 (GMT -0500)
Perry

Weather History for K40J - October, 2014

Change the Weather History Date:

Friday, October 10, 2014

  Actual Average (KCTY) Record (KCTY)
Temperature  
Mean Temperature 74 °F 72 °F  
Max Temperature 87 °F 84 °F 91 °F (2014)
Min Temperature 62 °F 61 °F 46 °F (2000)
Degree Days  
Heating Degree Days 0 0  
Month to date heating degree days 0  
Since 1 July heating degree days 0  
Cooling Degree Days 10 8  
Month to date cooling degree days 90  
Year to date cooling degree days 2432  
Growing Degree Days 24 (Base 50)    
Moisture  
Dew Point 66 °F    
Average Humidity 81    
Maximum Humidity 100    
Minimum Humidity 40    
Precipitation  
Precipitation 0.00 in 0.13 in 0.89 in (2011)
Month to date precipitation 1.45  
Year to date precipitation 41.28  
Sea Level Pressure  
Sea Level Pressure 30.07 in    
Wind  
Wind Speed 1 mph (South)    
Max Wind Speed 8 mph    
Max Gust Speed -    
Visibility 7 miles    
Events Fog    
T = Trace of Precipitation, MM = Missing Value Source: NWS Daily Summary

Daily Weather History Graph

Daily Weather History Graph

Search for Another Location

Airport or City:

Trip Planner

Search our weather history database for the weather conditions in past years. The results will help you decide how hot, cold, wet, or windy it might be!

Date:

Astronomy

Oct. 10, 2014 Rise Set
Actual Time 7:33 AM EDT 7:09 PM EDT
Civil Twilight 7:09 AM EDT 7:33 PM EDT
Nautical Twilight 6:41 AM EDT 8:00 PM EDT
Astronomical Twilight 6:13 AM EDT 8:28 PM EDT
Moon 8:59 PM EDT (10/10) 9:43 AM EDT (10/10)
Length of Visible Light 12h 23m
Length of Day
11h 35m
Waning Gibbous, 94% of the Moon is Illuminated
Oct 10
Waning Gibbous
Oct 15
Last Quarter
Oct 23
New
Oct 30
First Quarter
Nov 6
Full

Hourly Weather History & Observations

Time (EDT) Temp. Heat Index Dew Point Humidity Pressure Visibility Wind Dir Wind Speed Gust Speed Precip Events Conditions
12:15 AM 68.0 °F - 68.0 °F 100% 30.10 in 10.0 mi Calm Calm - N/A   Clear
12:35 AM 69.8 °F - 68.0 °F 94% 30.10 in 10.0 mi Calm Calm - N/A   Clear
12:55 AM 69.8 °F - 68.0 °F 94% 30.09 in 10.0 mi Calm Calm - N/A   Clear
1:15 AM 68.0 °F - 66.2 °F 94% 30.09 in 10.0 mi Calm Calm - N/A   Clear
1:35 AM 68.0 °F - 66.2 °F 94% 30.09 in 10.0 mi Calm Calm - N/A   Clear
1:55 AM 66.2 °F - 64.4 °F 94% 30.09 in 7.0 mi Calm Calm - N/A   Clear
2:15 AM 66.2 °F - 64.4 °F 94% 30.09 in 7.0 mi Calm Calm - N/A   Clear
2:35 AM 66.2 °F - 66.2 °F 100% 30.09 in 7.0 mi Calm Calm - N/A   Clear
2:55 AM 66.2 °F - 66.2 °F 100% 30.09 in 1.8 mi Calm Calm - N/A   Mist
3:15 AM 66.2 °F - 64.4 °F 94% 30.09 in 4.0 mi Calm Calm - N/A   Clear
3:35 AM 64.4 °F - 64.4 °F 100% 30.08 in 2.0 mi Calm Calm - N/A   Clear
3:55 AM 64.4 °F - 64.4 °F 100% 30.08 in 0.5 mi Calm Calm - N/A Fog Fog
4:15 AM 64.4 °F - 64.4 °F 100% 30.08 in 1.5 mi Calm Calm - N/A   Mist
4:35 AM 64.4 °F - 64.4 °F 100% 30.08 in 4.0 mi Calm Calm - N/A   Clear
4:55 AM 64.4 °F - 64.4 °F 100% 30.08 in 1.8 mi Calm Calm - N/A   Mist
5:15 AM 64.4 °F - 64.4 °F 100% 30.08 in 0.8 mi Calm Calm - N/A   Mist
5:35 AM 64.4 °F - 64.4 °F 100% 30.09 in 0.8 mi Calm Calm - N/A   Mist
5:55 AM 64.4 °F - 64.4 °F 100% 30.09 in 3.0 mi Calm Calm - N/A   Clear
6:15 AM 64.4 °F - 64.4 °F 100% 30.09 in 0.5 mi Calm Calm - N/A Fog Fog
6:35 AM 64.4 °F - 64.4 °F 100% 30.09 in 0.5 mi Calm Calm - N/A Fog Fog
6:55 AM 62.6 °F - 62.6 °F 100% 30.09 in 0.5 mi Calm Calm - N/A Fog Fog
7:15 AM 62.6 °F - 62.6 °F 100% 30.09 in 0.2 mi Calm Calm - N/A Fog Fog
7:35 AM 62.6 °F - 62.6 °F 100% 30.10 in 0.5 mi Calm Calm - N/A Fog Fog
7:55 AM 62.6 °F - 62.6 °F 100% 30.10 in 0.2 mi Calm Calm - N/A Fog Fog
8:15 AM 62.6 °F - 62.6 °F 100% 30.10 in 1.0 mi Calm Calm - N/A   Mist
8:35 AM 64.4 °F - 64.4 °F 100% 30.11 in 2.0 mi Calm Calm - N/A   Mist
8:55 AM 68.0 °F - 68.0 °F 100% 30.12 in 4.0 mi Calm Calm - N/A   Clear
9:15 AM 69.8 °F - 68.0 °F 94% 30.12 in 4.0 mi Calm Calm - N/A   Clear
9:35 AM 71.6 °F - 69.8 °F 94% 30.12 in 5.0 mi Calm Calm - N/A   Clear
9:55 AM 73.4 °F - 69.8 °F 88% 30.12 in 7.0 mi ESE 3.5 mph - N/A   Clear
10:15 AM 77.0 °F - 69.8 °F 78% 30.12 in 10.0 mi SE 3.5 mph - N/A   Clear
10:35 AM 77.0 °F - 69.8 °F 78% 30.12 in 10.0 mi ESE 3.5 mph - N/A   Clear
10:55 AM 78.8 °F - 69.8 °F 74% 30.12 in 10.0 mi SSE 4.6 mph - N/A   Clear
11:15 AM 78.8 °F - 69.8 °F 74% 30.11 in 10.0 mi SSW 4.6 mph - N/A   Clear
11:35 AM 80.6 °F 83.2 °F 68.0 °F 65% 30.11 in 10.0 mi South 3.5 mph - N/A   Clear
11:55 AM 82.4 °F 86.3 °F 69.8 °F 66% 30.11 in 10.0 mi Calm Calm - N/A   Clear
12:15 PM 82.4 °F 84.6 °F 66.2 °F 58% 30.10 in 10.0 mi SSW 5.8 mph - N/A   Clear
12:35 PM 82.4 °F 83.9 °F 64.4 °F 54% 30.09 in 10.0 mi Calm Calm - N/A   Clear
12:55 PM 84.2 °F 86.6 °F 66.2 °F 55% 30.08 in 10.0 mi SSE 4.6 mph - N/A   Clear
1:15 PM 84.2 °F 85.6 °F 64.4 °F 51% 30.08 in 10.0 mi South 4.6 mph - N/A   Clear
1:35 PM 86.0 °F 87.3 °F 64.4 °F 48% 30.07 in 10.0 mi East 4.6 mph - N/A   Clear
1:55 PM 86.0 °F 87.3 °F 64.4 °F 48% 30.06 in 10.0 mi ESE 6.9 mph - N/A   Clear
2:15 PM 86.0 °F 87.3 °F 64.4 °F 48% 30.05 in 10.0 mi East 3.5 mph - N/A   Scattered Clouds
2:35 PM 86.0 °F 86.6 °F 62.6 °F 45% 30.05 in 10.0 mi SSE 4.6 mph - N/A   Clear
2:55 PM 84.2 °F 85.0 °F 62.6 °F 48% 30.04 in 10.0 mi Calm Calm - N/A   Clear
3:15 PM 86.0 °F 87.3 °F 64.4 °F 48% 30.04 in 10.0 mi ESE 3.5 mph - N/A   Clear
3:35 PM 87.8 °F 88.5 °F 62.6 °F 43% 30.03 in 10.0 mi South 3.5 mph - N/A   Clear
3:55 PM 87.8 °F 88.5 °F 62.6 °F 43% 30.03 in 10.0 mi SSE 6.9 mph - N/A   Scattered Clouds
4:15 PM 87.8 °F 87.6 °F 60.8 °F 40% 30.02 in 10.0 mi South 6.9 mph - N/A   Scattered Clouds
4:35 PM 87.8 °F 88.5 °F 62.6 °F 43% 30.02 in 10.0 mi SSW 5.8 mph - N/A   Clear
4:55 PM 86.0 °F 89.4 °F 68.0 °F 55% 30.02 in 10.0 mi SW 6.9 mph - N/A   Clear
5:15 PM 86.0 °F 89.4 °F 68.0 °F 55% 30.02 in 10.0 mi West 4.6 mph - N/A   Scattered Clouds
5:35 PM 84.2 °F 87.3 °F 68.0 °F 58% 30.02 in 10.0 mi West 8.1 mph - N/A   Clear
5:55 PM 82.4 °F 85.4 °F 68.0 °F 62% 30.02 in 10.0 mi SW 8.1 mph - N/A   Clear
6:15 PM 82.4 °F 85.4 °F 68.0 °F 62% 30.02 in 10.0 mi West 5.8 mph - N/A   Clear
6:35 PM 80.6 °F 83.2 °F 68.0 °F 65% 30.03 in 10.0 mi West 5.8 mph - N/A   Clear
6:55 PM 78.8 °F - 68.0 °F 69% 30.03 in 10.0 mi West 4.6 mph - N/A   Clear
7:15 PM 77.0 °F - 68.0 °F 74% 30.03 in 10.0 mi West 3.5 mph - N/A   Clear
7:35 PM 75.2 °F - 68.0 °F 78% 30.03 in 10.0 mi Calm Calm - N/A   Clear
7:55 PM 75.2 °F - 68.0 °F 78% 30.04 in 10.0 mi Calm Calm - N/A   Clear
8:15 PM 73.4 °F - 68.0 °F 83% 30.04 in 10.0 mi Calm Calm - N/A   Clear
8:35 PM 73.4 °F - 68.0 °F 83% 30.04 in 10.0 mi Calm Calm - N/A   Clear
8:55 PM 71.6 °F - 68.0 °F 88% 30.04 in 10.0 mi Calm Calm - N/A   Clear
9:15 PM 71.6 °F - 68.0 °F 88% 30.04 in 10.0 mi Calm Calm - N/A   Clear
9:35 PM 69.8 °F - 68.0 °F 94% 30.05 in 10.0 mi Calm Calm - N/A   Clear
9:55 PM 69.8 °F - 68.0 °F 94% 30.05 in 10.0 mi Calm Calm - N/A   Clear
10:15 PM 69.8 °F - 68.0 °F 94% 30.06 in 10.0 mi Calm Calm - N/A   Clear
10:35 PM 69.8 °F - 68.0 °F 94% 30.06 in 10.0 mi Calm Calm - N/A   Clear
10:55 PM 68.0 °F - 68.0 °F 100% 30.06 in 10.0 mi Calm Calm - N/A   Clear
11:15 PM 68.0 °F - 66.2 °F 94% 30.07 in 7.0 mi Calm Calm - N/A   Clear
11:35 PM 68.0 °F - 68.0 °F 100% 30.06 in 3.0 mi Calm Calm - N/A   Clear
11:55 PM 68.0 °F - 68.0 °F 100% 30.06 in 5.0 mi Calm Calm - N/A   Clear